Regional Weather Roundup
Issued by NWS

Home | Current Version | Previous Version | Graphics & Text | Print | Product List | Glossary Off
Versions: 1 2 3 4 5 6 7 8 9 10 11 12 13 14 15 16 17 18 19 20 21 22 23 24 25 26 27 28 29 30 31 32 33 34 35 36 37 38 39 40 41 42 43 44 45 46 47 48 49 50

000
ASUS43 KTOP 010859
RWRKS

WEATHER ROUNDUP FOR KANSAS
NATIONAL WEATHER SERVICE GOODLAND KS
400 AM CDT SUN MAY 01 2016

NOTE:  "FAIR" INDICATES FEW OR NO CLOUDS BELOW 12,000 FEET WITH NO
SIGNIFICANT WEATHER AND/OR OBSTRUCTIONS TO VISIBILITY.

KSZ001>006-013>018-027>032-041>047-011000-
NORTHWEST KANSAS

CITY           SKY/WX    TMP DP  RH WIND       PRES   REMARKS
GOODLAND       CLOUDY    35  32  88 N21G26    30.06R WCI  24
HAYS           CLOUDY    43  30  61 NW14      29.98R
HILL CITY      CLOUDY    41  39  93 NW13      30.00R FOG
RUSSELL        CLOUDY    42  37  82 W15       29.95S
$$

KSZ061>065-074>080-084>089-011000-
SOUTHWEST KANSAS

CITY           SKY/WX    TMP DP  RH WIND       PRES   REMARKS
DODGE CITY     CLOUDY    39  32  76 NW21G32   30.01S WCI  29
ELKHART          N/A     39  30  70 NW14        N/A  WCI  31
GARDEN CITY    CLOUDY    39  32  76 NW24G39   30.02S WCI  28
GREAT BEND     CLOUDY    43  34  70 NW13G23   29.98R
LIBERAL        CLOUDY    41  32  70 NW10      30.08R
$$

KSZ066>073-081>083-090>101-011000-
SOUTHEAST KANSAS

CITY           SKY/WX    TMP DP  RH WIND       PRES   REMARKS
CHANUTE        CLEAR     47  42  83 W3        29.93R
COFFEYVILLE    CLEAR     48  46  93 CALM      29.94S
HUTCHINSON     MOCLDY    44  40  85 NW6       29.95F
MEDICINE LODGE   N/A     41  37  86 W6        30.00R
NEWTON         CLEAR     43  36  75 W7        29.96S
PARSONS        CLEAR     45  43  93 CALM      29.95R
WICHITA INTL   CLEAR     45  39  79 NW10      29.96R
WICHITA JABRA  PTCLDY    44  40  85 W7        29.95S
WINFIELD       CLEAR     43  40  89 NW6       29.97
$$

KSZ007>012-019>026-033>040-048>060-102>105-011000-
NORTHEAST KANSAS

CITY           SKY/WX    TMP DP  RH WIND       PRES   REMARKS
CONCORDIA      CLOUDY    45  41  86 W8        29.91S
EMPORIA        CLEAR     46  42  86 W7        29.92S
LAWRENCE       MOCLDY    50  46  86 W6        29.91R
MANHATTAN      CLOUDY    50  43  77 W6        29.91S
OLATHE IND     MOCLDY    50  46  86 SW5       29.91R
OLATHE EXE     CLEAR     49  45  86 CALM      29.90R
SALINA         CLOUDY    47  42  83 W10       29.94S
TOPEKA BILLARD PTCLDY    49  44  83 CALM      29.90S
TOPEKA FORBES  CLOUDY    49  45  86 W7        29.90R
$$



USA.gov is the U.S. government's official web portal to all federal, state and local government web resources and services.